Lamar, CO

5:16 PM MST on December 15, 2019 (GMT -0700)
Lamar Municipal

Weather History for KLAA - October, 2019

Change the Weather History Date:

Monday, October 28, 2019

  Actual Average Record
Temperature  
Mean Temperature 26 °F 48 °F  
Max Temperature 31 °F 65 °F 87 °F (2016)
Min Temperature 20 °F 30 °F 16 °F (2010)
Degree Days  
Heating Degree Days 39 17  
Month to date heating degree days 426 330  
Since 1 July heating degree days 432 413  
Cooling Degree Days 0 0  
Month to date cooling degree days 1 8  
Year to date cooling degree days 1406 1120  
Moisture  
Dew Point 18 °F    
Average Humidity 71    
Maximum Humidity 88    
Minimum Humidity 53    
Precipitation  
Precipitation 0.02 in 0.02 in 0.60 in (2000)
Month to date precipitation 0.15 0.74  
Year to date precipitation 7.90 14.36  
Sea Level Pressure  
Sea Level Pressure 30.11 in    
Wind  
Wind Speed 7 mph (ESE)    
Max Wind Speed 14 mph    
Max Gust Speed 18 mph    
Visibility 8 miles    
Events Fog , Snow    
T = Trace of Precipitation, MM = Missing Value Source: NWS Daily Summary

Daily Weather History Graph

Daily Weather History Graph

Search for Another Location

Airport or City:

Astronomy

Oct. 28, 2019 Rise Set
Actual Time 7:12 AM MDT 5:56 PM MDT
Civil Twilight 6:45 AM MDT 6:23 PM MDT
Nautical Twilight 6:14 AM MDT 6:54 PM MDT
Astronomical Twilight 5:43 AM MDT 7:24 PM MDT
Moon 7:36 AM MDT (10/28) 6:43 PM MDT (10/28)
Length of Visible Light 11h 38m
Length of Day
10h 44m
New Moon, 1% of the Moon is Illuminated
Oct 28
New Moon
Nov 4
First Quarter
Nov 12
Full
Nov 19
Last Quarter
Nov 26
New

Hourly Weather History & Observations

Time (MDT) Temp. Windchill Dew Point Humidity Pressure Visibility Wind Dir Wind Speed Gust Speed Precip Events Conditions
12:53 AM 30.0 °F 20.5 °F 16.0 °F 56% 30.16 in 10.0 mi NE 11.5 mph - N/A   Overcast
1:53 AM 30.0 °F 20.5 °F 15.1 °F 54% 30.16 in 10.0 mi NE 11.5 mph - N/A   Overcast
2:53 AM 28.9 °F 19.8 °F 15.1 °F 56% 30.17 in 10.0 mi NE 10.4 mph - N/A   Overcast
3:53 AM 28.9 °F 19.2 °F 15.1 °F 56% 30.14 in 10.0 mi NE 11.5 mph - N/A   Overcast
4:53 AM 28.0 °F 20.0 °F 14.0 °F 56% 30.13 in 10.0 mi East 8.1 mph - N/A   Overcast
5:53 AM 28.0 °F 20.0 °F 12.9 °F 53% 30.14 in 10.0 mi East 8.1 mph - N/A   Overcast
6:53 AM 28.0 °F 20.0 °F 14.0 °F 56% 30.13 in 10.0 mi East 8.1 mph - N/A   Overcast
7:53 AM 28.0 °F 18.6 °F 14.0 °F 56% 30.13 in 10.0 mi East 10.4 mph - N/A   Overcast
8:53 AM 27.0 °F 17.3 °F 16.0 °F 63% 30.14 in 10.0 mi ESE 10.4 mph - N/A   Overcast
9:53 AM 27.0 °F 17.3 °F 16.0 °F 63% 30.14 in 10.0 mi ESE 10.4 mph - N/A   Overcast
10:53 AM 27.0 °F 19.5 °F 15.1 °F 61% 30.16 in 10.0 mi ENE 6.9 mph - N/A   Overcast
11:28 AM 26.1 °F 16.8 °F 19.0 °F 75% 30.07 in 1.8 mi East 9.2 mph - 0.00 in Snow Light Snow
11:42 AM 25.0 °F 15.5 °F 19.9 °F 81% 30.07 in 1.0 mi ESE 9.2 mph - 0.01 in Snow Light Snow
11:53 AM 26.1 °F 18.4 °F 21.0 °F 81% 30.14 in 0.5 mi SE 6.9 mph - 0.01 in Snow Snow
12:01 PM 25.0 °F 16.3 °F 21.0 °F 85% 30.08 in 0.5 mi ESE 8.1 mph - 0.01 in Fog , Snow Snow
12:09 PM 26.1 °F 19.4 °F 21.9 °F 84% 30.08 in 1.2 mi ESE 5.8 mph - 0.01 in Snow Light Snow
12:13 PM 26.1 °F 20.5 °F 21.0 °F 81% 30.08 in 2.0 mi East 4.6 mph - 0.01 in Snow Light Snow
12:23 PM 26.1 °F 21.9 °F 21.0 °F 81% 30.08 in 4.0 mi East 3.5 mph - 0.01 in Snow Light Snow
12:53 PM 26.1 °F 19.4 °F 21.0 °F 81% 30.14 in 9.0 mi ENE 5.8 mph - 0.01 in   Overcast
1:30 PM 26.1 °F 21.9 °F 19.9 °F 78% 30.06 in 10.0 mi East 3.5 mph - N/A   Overcast
1:53 PM 26.1 °F 21.9 °F 19.9 °F 78% 30.12 in 10.0 mi SE 3.5 mph - N/A   Overcast
2:07 PM 26.1 °F - 19.9 °F 78% 30.04 in 10.0 mi Calm Calm - N/A   Overcast
2:53 PM 27.0 °F - 19.0 °F 72% 30.11 in 10.0 mi Calm Calm - N/A   Overcast
3:53 PM 28.9 °F - 19.0 °F 67% 30.10 in 10.0 mi Calm Calm - N/A   Overcast
4:38 PM 30.0 °F - 19.0 °F 64% 30.03 in 10.0 mi Calm Calm - N/A   Mostly Cloudy
4:53 PM 28.9 °F 25.2 °F 18.0 °F 64% 30.09 in 10.0 mi East 3.5 mph - N/A   Overcast
5:11 PM 28.9 °F - 18.0 °F 64% 30.03 in 10.0 mi Calm Calm - N/A   Scattered Clouds
5:53 PM 25.0 °F 16.3 °F 19.0 °F 78% 30.10 in 10.0 mi SSE 8.1 mph - N/A   Clear
6:53 PM 21.9 °F 12.5 °F 19.0 °F 89% 30.14 in 10.0 mi South 8.1 mph - N/A   Mostly Cloudy
7:53 PM 23.0 °F 13.9 °F 18.0 °F 81% 30.14 in 10.0 mi SSE 8.1 mph - N/A   Overcast
8:53 PM 23.0 °F 14.7 °F 19.0 °F 85% 30.12 in 10.0 mi ESE 6.9 mph - N/A   Mostly Cloudy
9:15 PM 21.0 °F 12.4 °F 18.0 °F 88% 30.04 in 10.0 mi ESE 6.9 mph - N/A   Partly Cloudy
9:39 PM 23.0 °F 13.9 °F 19.0 °F 85% 30.06 in 10.0 mi SE 8.1 mph - N/A   Mostly Cloudy
9:53 PM 23.0 °F 13.9 °F 19.0 °F 85% 30.14 in 10.0 mi SE 8.1 mph - N/A   Overcast
10:53 PM 25.0 °F 19.3 °F 21.0 °F 85% 30.15 in 10.0 mi SE 4.6 mph - N/A   Overcast
11:53 PM 25.0 °F 19.3 °F 21.0 °F 85% 30.14 in 10.0 mi ESE 4.6 mph - N/A   Overcast